Weather in Chernava

Russia / Ryazan Oblast     53°36′42″N   39°08′17″E
temp.,
°C
wind,
m/s
gust,
m/s
humid.,
%
clouds,
%
prec.,
mm/h
press.,
hPa
HPBL,
m
19 january, wed
wed1900:00−10n71592100 0.3 1013447
03:00−12n6149489 0.3 1015320
06:00−13nnw5129587 0.0 1016257
09:00−16nnw399880 0.0 1018146
12:00−14nnw3796100 0.0 1019160
15:00−12nnw3595100 0.0 1019117
18:00−20w2210061 0.0 10199
21:00−21wsw2210068 0.0 101922
20 january, thu
thu2000:00−18sw349726 0.0 101855
03:00−17ssw489435 0.0 101795
06:00−15ssw4109184 0.0 1016142
09:00−13ssw5129671 0.0 1015199
12:00−10ssw6149593 0.0 1014329
15:00−9s61594100 0.1 1012387
18:00−10s7169380 0.0 1010355
21:00−10s8179299 0.0 1010378
21 january, fri
fri2100:00−9s81693100 0.1 1009417
03:00−7s71593100 0.1 1008463
06:00−7sse61395100 0.6 1006437
09:00−7sse71495100 2.3 1005538
12:00−6sse71495100 1.2 1003553
15:00−4sse71395100 2.1 1001638
18:00−3ssw4997100 1.1 1000549
21:00−5sw61191100 2.6 1002572
22 january, sat
sat2200:00−10s5129582 0.0 1005213
03:00−9s6139394 0.1 1005355
06:00−10sse6129599 0.0 1006260
09:00−10sse5109576 0.1 1009227
12:00−9sse51095100 0.0 1011298
15:00−9sse41095100 0.1 1012265
18:00−12se3798100 0.0 1015101
21:00−11se3797100 0.1 1017144
23 january, sun
sun2300:00−16ese2210097 0.0 102016
03:00−19ese22100100 0.1 102210
06:00−19e22100100 0.1 102410
09:00−20e11100100 0.1 10269
12:00−13ene129793 0.1 102874
15:00−12nne239638 0.1 102856
18:00−15ne369985 0.0 103163
21:00−16ne37100100 0.0 103292